CZ-6A R/B, 63605

Orbit data source: Space-Track

CZ-6A R/B, 63605 is space debris in SSO originally from a launch on Fri, 18 Apr 2025 UTC launched from the Taiyaun Space Center, China (TSC). Debris objects in space refer to the collection of defunct objects orbiting the Earth. Examples of debris include non-operational satellites, rocket bodies, and fragments generated from explosions, collisions, or faulty payload assembly.

Loading next visibility...
Identifier
63605, 2025-078G
Orbit
SSO
Country
Flag of CNCN / PRC
Related business
Manufacturer
SAST
Mission
Spacecraft
Bus & Motor
CZ-6A STAGE 2, YF-115
Mass
~6,000 kg wet, ~6,000 kg dry
Launch date (UTC)
2025-04-18 (7 months ago)
Launch vehicle
Unknown
Launch site
Taiyaun Space Center, China (TSC)
Object type
Payload
Rocket body
Debris
Shape & HBR
Unknown shape, 4.4 m
Radar Cross Section
Large (>1 m²)

Expand to show TLE details & history
Last TLE update: 21 hours ago

TLE from 21 hours ago
0 CZ-6A R/B
1 63605U 25078G   25309.07062264  .00000034  00000-0  60059-4 0  9999
2 63605  99.6967 327.6581 0105538 293.2498  65.7577 13.94771789 27876
Epoch: 2025-11-05T01:41Z
TLE epoch observation values (Epoch: 2025-11-05T01:41:41.796Z)
Latitude
-0.00007°
Longitude
-102.3146°
Altitude
883.886 km
Speed
7.426 km/s
True Right ascension
21h 50m 37s
True Declination
0° 00' 00"
Sunlit
Object was in daylight at epoch
Visualization orbit readout
Latitude
Unknown
Longitude
Unknown
Altitude
Unknown
Speed
Unknown
Apparent Right ascension
Unknown
Apparent Declination
Unknown
Sunlit
N/A
Visualization observer readout
Local Sidereal Time
19:05:50
Azimuth
Unknown
Elevation
Unknown
Doppler factor
Unknown
Orbital elements
Apogee altitude
986.106 km
Perigee altitude
832.288 km
Semi-major axis
7,287.334 km
Eccentricity
0.01055
Inclination
99.6967°
RAAN
327.6581°
Arg. of periapsis
293.2498°
True anomaly
66.86637°
Mean anomaly
65.7577°
Eccentric anomaly
66.31144°
Mean motion
3.48891 °/min
Orbital period
103.18 mins
BSTAR
0.000060059
Loading maneuver chart data...
Computing Atmospheric mass density...
Loading historical data...
Loading historical data...
Loading historical data...
Loading historical data...
Loading historical data...
Loading historical data...
Loading historical data...

Documentation

Showing up to 5 results
|